GW4987 Weather Reports


time (UTC)temp
C
wind
direction
speed
KPH
gust
KPH
rain 1hr
cm
rain 24hr
cm
rain mn
cm
humidity
%
barometer
mb
20260510082047 18 265 11.3 12.9 0.00 0.00 0.00 20 1019.0
20260510081547 18 266 9.7 12.9 0.00 0.00 0.00 20 1018.9
20260510081007 18 264 9.7 14.5 0.00 0.00 0.00 20 1018.8
20260510080547 18 257 8.0 11.3 0.00 0.00 0.00 21 1018.9
20260510080047 17 249 9.7 12.9 0.00 0.00 0.00 21 1018.9
20260510074546 17 263 8.0 14.5 0.00 0.00 0.00 21 1019.2
20260510074047 17 274 8.0 14.5 0.00 0.00 0.00 21 1018.9
20260510073547 17 237 6.4 9.7 0.00 0.00 0.00 22 1019.0
20260510073047 17 247 9.7 11.3 0.00 0.00 0.00 21 1019.0
20260510072547 17 245 6.4 11.3 0.00 0.00 0.00 21 1018.9
20260510072007 17 225 3.2 11.3 0.00 0.00 0.00 21 1018.9
20260510071546 18 234 4.8 11.3 0.00 0.00 0.00 21 1018.7
20260510071046 18 267 9.7 12.9 0.00 0.00 0.00 20 1019.0
20260510065047 18 265 8.0 9.7 0.00 0.00 0.00 20 1019.0
20260510064546 18 265 6.4 8.0 0.00 0.00 0.00 20 1018.8
20260510064047 18 229 4.8 6.4 0.00 0.00 0.00 20 1018.8
20260510062047 19 267 8.0 8.0 0.00 0.00 0.00 20 1018.7
20260510061507 19 262 6.4 8.0 0.00 0.00 0.00 20 1018.7
20260510061007 20 226 6.4 11.3 0.00 0.00 0.00 20 1018.6
20260510060546 19 265 8.0 9.7 0.00 0.00 0.00 20 1018.6
20260510060047 20 266 8.0 11.3 0.00 0.00 0.00 20 1018.6
20260510055547 19 262 6.4 9.7 0.00 0.00 0.00 20 1018.6
20260510055047 19 249 4.8 8.0 0.00 0.00 0.00 20 1018.5
20260510054547 20 268 8.0 12.9 0.00 0.00 0.00 19 1018.5
20260510054008 20 260 9.7 14.5 0.00 0.00 0.00 19 1018.4
20260510053547 20 263 14.5 14.5 0.00 0.00 0.00 19 1018.6
20260510053047 20 265 9.7 14.5 0.00 0.00 0.00 19 1018.5
20260510052508 20 264 9.7 11.3 0.00 0.00 0.00 19 1018.6
20260510052008 20 265 9.7 11.3 0.00 0.00 0.00 20 1018.4
20260510051547 20 262 6.4 12.9 0.00 0.00 0.00 19 1018.6
20260510051008 20 267 9.7 14.5 0.00 0.00 0.00 20 1018.5
20260510050547 20 268 11.3 14.5 0.00 0.00 0.00 19 1018.6
20260510050047 20 265 9.7 11.3 0.00 0.00 0.00 19 1018.5
20260510045546 20 269 8.0 11.3 0.00 0.00 0.00 19 1018.6
20260510045027 20 253 6.4 11.3 0.00 0.00 0.00 19 1018.6
20260510044546 20 271 9.7 12.9 0.00 0.00 0.00 19 1018.6
20260510044046 20 250 6.4 9.7 0.00 0.00 0.00 19 1018.5
20260510043546 20 253 9.7 9.7 0.00 0.00 0.00 19 1018.6
20260510041546 20 260 6.4 14.5 0.00 0.00 0.00 19 1018.4
20260510041046 20 266 8.0 12.9 0.00 0.00 0.00 19 1018.5
20260510040546 20 261 8.0 8.0 0.00 0.00 0.00 19 1018.5
20260510040007 20 242 6.4 8.0 0.00 0.00 0.00 20 1018.0
20260510035547 20 237 4.8 6.4 0.00 0.00 0.00 19 1018.1
20260510035047 20 258 6.4 8.0 0.00 0.00 0.00 19 1018.2
20260510030047 21 257 8.0 11.3 0.00 0.00 0.00 20 1017.7
20260510025508 21 241 4.8 9.7 0.00 0.00 0.00 20 1017.6
20260510025047 21 279 8.0 9.7 0.00 0.00 0.00 20 1017.5
20260510024547 21 256 8.0 12.9 0.00 0.00 0.00 20 1017.7
20260510024047 21 254 4.8 8.0 0.00 0.00 0.00 20 1017.7
20260510023546 21 268 4.8 8.0 0.00 0.00 0.00 20 1017.6
20260510023046 22 240 8.0 8.0 0.00 0.00 0.00 20 1017.7
20260510022546 22 248 6.4 14.5 0.00 0.00 0.00 19 1017.5
20260510022008 22 240 6.4 11.3 0.00 0.00 0.00 19 1017.6
20260510021547 23 222 12.9 14.5 0.00 0.00 0.00 19 1017.6
20260510021047 23 225 4.8 12.9 0.00 0.00 0.00 19 1017.2
20260510020507 23 252 4.8 9.7 0.00 0.00 0.00 19 1017.3
20260510020046 24 220 9.7 17.7 0.00 0.00 0.00 18 1017.2
20260510015546 24 268 6.4 14.5 0.00 0.00 0.00 18 1017.4
20260510015007 25 220 8.0 20.9 0.00 0.00 0.00 18 1017.2
20260510014546 25 224 9.7 11.3 0.00 0.00 0.00 18 1017.3
20260510014046 25 205 11.3 16.1 0.00 0.00 0.00 18 1017.1
20260510013547 25 260 14.5 20.9 0.00 0.00 0.00 17 1017.0
20260510013007 25 249 12.9 19.3 0.00 0.00 0.00 17 1017.2
20260510012546 26 233 6.4 11.3 0.00 0.00 0.00 17 1017.2
20260510012046 26 211 14.5 14.5 0.00 0.00 0.00 17 1017.1
20260510011546 26 232 22.5 25.7 0.00 0.00 0.00 17 1017.1
20260510011007 25 258 24.1 32.2 0.00 0.00 0.00 17 1017.0
20260510010546 26 249 11.3 20.9 0.00 0.00 0.00 17 1017.0
20260510010047 26 222 14.5 19.3 0.00 0.00 0.00 17 1016.8
20260510005546 26 219 11.3 19.3 0.00 0.00 0.00 17 1016.8
20260510005046 26 216 20.9 24.1 0.00 0.00 0.00 17 1017.0
20260510004547 26 243 11.3 20.9 0.00 0.00 0.00 17 1017.1
20260510004008 26 265 16.1 30.6 0.00 0.00 0.00 17 1017.0
20260510003546 26 193 14.5 22.5 0.00 0.00 0.00 17 1017.2
20260510003047 26 271 11.3 19.3 0.00 0.00 0.00 17 1017.0
20260510002507 26 215 11.3 27.4 0.00 0.00 0.00 17 1017.1
20260510002007 26 254 20.9 24.1 0.00 0.00 0.00 17 1017.2
20260510001546 26 248 8.0 35.4 0.00 0.00 0.00 17 1017.1
20260510001007 26 238 16.1 29.0 0.00 0.00 0.00 17 1017.1
20260510000546 26 271 17.7 32.2 0.00 0.00 0.00 17 1017.2
20260510000046 26 216 27.4 32.2 0.00 0.00 0.00 17 1017.2
20260509235546 27 264 12.9 20.9 0.00 0.00 0.00 16 1017.1
20260509235046 27 219 11.3 25.7 0.00 0.00 0.00 17 1017.2
20260509233008 27 267 14.5 24.1 0.00 0.00 0.00 16 1017.2
20260509232546 27 219 11.3 19.3 0.00 0.00 0.00 15 1017.1
20260509232047 27 214 12.9 27.4 0.00 0.00 0.00 15 1017.3
20260509231547 26 241 8.0 12.9 0.00 0.00 0.00 16 1017.2
20260509231047 26 214 12.9 27.4 0.00 0.00 0.00 16 1017.4
20260509230547 27 227 8.0 27.4 0.00 0.00 0.00 16 1017.4
20260509230008 27 251 8.0 25.7 0.00 0.00 0.00 16 1017.5
20260509225546 27 267 12.9 32.2 0.00 0.00 0.00 16 1017.6
20260509225046 26 269 14.5 32.2 0.00 0.00 0.00 16 1017.6
20260509224508 27 218 20.9 29.0 0.00 0.00 0.00 16 1017.4
20260509224008 27 267 17.7 22.5 0.00 0.00 0.00 15 1017.3
20260509223546 27 227 12.9 24.1 0.00 0.00 0.00 15 1017.5
20260509223008 27 230 11.3 24.1 0.00 0.00 0.00 16 1017.6
20260509222546 26 260 9.7 32.2 0.00 0.00 0.00 16 1017.5
20260509222046 27 257 12.9 14.5 0.00 0.00 0.00 15 1017.7
20260509221546 27 225 12.9 27.4 0.00 0.00 0.00 16 1017.8
20260509221047 26 238 11.3 35.4 0.00 0.00 0.00 16 1017.9
20260509220546 26 204 32.2 35.4 0.00 0.00 0.00 15 1018.0
20260509220047 27 226 14.5 32.2 0.00 0.00 0.00 15 1017.9
20260509214047 27 269 16.1 25.7 0.00 0.00 0.00 15 1018.1
20260509213547 26 222 17.7 40.2 0.00 0.00 0.00 16 1018.2
20260509213047 27 261 29.0 35.4 0.00 0.00 0.00 15 1018.0
20260509212546 27 211 14.5 27.4 0.00 0.00 0.00 16 1018.2
20260509212007 27 202 14.5 29.0 0.00 0.00 0.00 16 1018.0
20260509211547 27 212 17.7 24.1 0.00 0.00 0.00 15 1018.2
20260509211047 26 320 12.9 32.2 0.00 0.00 0.00 15 1018.1
20260509210507 27 275 24.1 35.4 0.00 0.00 0.00 15 1018.2
20260509210007 26 235 16.1 22.5 0.00 0.00 0.00 16 1018.4
20260509205546 26 212 19.3 24.1 0.00 0.00 0.00 15 1018.3
20260509205008 26 275 24.1 27.4 0.00 0.00 0.00 16 1018.6
20260509204547 27 243 32.2 33.8 0.00 0.00 0.00 16 1018.5
20260509204047 26 193 8.0 24.1 0.00 0.00 0.00 16 1018.6
20260509203547 26 286 4.8 12.9 0.00 0.00 0.00 14 1018.7
20260509203007 26 275 9.7 25.7 0.00 0.00 0.00 15 1018.6
20260509202546 27 209 14.5 35.4 0.00 0.00 0.00 15 1018.6
20260509202047 27 302 11.3 25.7 0.00 0.00 0.00 15 1018.6
20260509201546 27 295 11.3 27.4 0.00 0.00 0.00 15 1018.6
20260509201007 26 268 12.9 30.6 0.00 0.00 0.00 14 1018.7
20260509200547 27 256 17.7 30.6 0.00 0.00 0.00 14 1018.8
20260509200046 26 156 9.7 32.2 0.00 0.00 0.00 15 1018.7
20260509195546 27 244 19.3 32.2 0.00 0.00 0.00 15 1018.8
20260509195047 27 252 22.5 38.6 0.00 0.00 0.00 14 1018.9
20260509193047 26 240 11.3 24.1 0.00 0.00 0.00 14 1018.9
20260509192508 26 261 9.7 32.2 0.00 0.00 0.00 16 1018.9
20260509190546 26 277 16.1 29.0 0.00 0.00 0.00 16 1019.0
20260509190046 26 246 16.1 19.3 0.00 0.00 0.00 15 1019.3
20260509185547 26 284 8.0 17.7 0.00 0.00 0.00 15 1019.0
20260509185007 27 269 11.3 19.3 0.00 0.00 0.00 15 1019.3
20260509184546 26 197 14.5 32.2 0.00 0.00 0.00 16 1019.2
20260509184047 26 211 22.5 24.1 0.00 0.00 0.00 15 1019.2
20260509182047 27 193 11.3 37.0 0.00 0.00 0.00 15 1019.4
20260509181547 26 300 24.1 40.2 0.00 0.00 0.00 15 1019.3
20260509181047 26 267 22.5 33.8 0.00 0.00 0.00 16 1019.4
20260509175046 26 307 12.9 16.1 0.00 0.00 0.00 16 1019.4
20260509174509 26 269 19.3 25.7 0.00 0.00 0.00 16 1019.4
20260509174008 26 266 16.1 17.7 0.00 0.00 0.00 16 1019.4
20260509173547 26 147 3.2 11.3 0.00 0.00 0.00 15 1019.6
20260509173008 26 219 12.9 27.4 0.00 0.00 0.00 15 1019.4
20260509171008 26 284 3.2 8.0 0.00 0.00 0.00 15 1019.3
20260509170546 26 318 14.5 16.1 0.00 0.00 0.00 15 1019.5
20260509170047 26 316 12.9 12.9 0.00 0.00 0.00 15 1019.4
20260509165508 26 307 19.3 24.1 0.00 0.00 0.00 15 1019.3
20260509165008 26 35 8.0 11.3 0.00 0.00 0.00 16 1019.5
20260509164547 26 19 8.0 12.9 0.00 0.00 0.00 17 1019.5
20260509164047 26 46 3.2 14.5 0.00 0.00 0.00 17 1019.4
20260509163527 26 301 8.0 11.3 0.00 0.00 0.00 17 1019.5
20260509163047 26 25 4.8 20.9 0.00 0.00 0.00 17 1019.3
20260509162547 26 334 8.0 12.9 0.00 0.00 0.00 17 1019.2
20260509162007 26 60 14.5 14.5 0.00 0.00 0.00 17 1019.3
20260509161546 25 23 6.4 12.9 0.00 0.00 0.00 17 1019.2
20260509161046 25 3 8.0 11.3 0.00 0.00 0.00 17 1019.4
20260509160546 26 353 4.8 9.7 0.00 0.00 0.00 17 1019.3
20260509160008 25 26 8.0 12.9 0.00 0.00 0.00 18 1019.4
20260509155547 25 34 6.4 11.3 0.00 0.00 0.00 19 1019.4
20260509155008 25 323 9.7 9.7 0.00 0.00 0.00 19 1019.3
20260509154546 25 346 6.4 14.5 0.00 0.00 0.00 19 1019.4
20260509154046 25 287 9.7 12.9 0.00 0.00 0.00 17 1019.2
20260509153547 26 318 0.0 8.0 0.00 0.00 0.00 17 1019.4
20260509153007 25 70 8.0 9.7 0.00 0.00 0.00 18 1019.2
20260509152546 25 19 4.8 8.0 0.00 0.00 0.00 18 1019.2
20260509152047 25 25 6.4 11.3 0.00 0.00 0.00 20 1019.3
20260509151507 24 63 4.8 8.0 0.00 0.00 0.00 19 1019.0
20260509151007 23 297 4.8 12.9 0.00 0.00 0.00 19 1019.2
20260509150547 23 301 6.4 9.7 0.00 0.00 0.00 18 1019.2
20260509150047 23 290 6.4 14.5 0.00 0.00 0.00 19 1019.3
20260509145547 23 269 6.4 12.9 0.00 0.00 0.00 19 1019.4
20260509145046 23 264 11.3 16.1 0.00 0.00 0.00 19 1019.2
20260509144547 23 241 6.4 16.1 0.00 0.00 0.00 20 1019.3
20260509144008 22 328 6.4 8.0 0.00 0.00 0.00 20 1019.3
20260509143547 22 271 8.0 9.7 0.00 0.00 0.00 21 1019.2
20260509143047 22 120 3.2 4.8 0.00 0.00 0.00 25 1019.2
20260509142508 23 86 4.8 6.4 0.00 0.00 0.00 25 1019.3
20260509142008 22 75 4.8 4.8 0.00 0.00 0.00 23 1019.0
20260509141547 22 136 3.2 4.8 0.00 0.00 0.00 26 1019.2
20260509141008 22 130 3.2 3.2 0.00 0.00 0.00 25 1018.9
20260509140546 21 103 4.8 4.8 0.00 0.00 0.00 24 1019.2
20260509140047 21 74 3.2 3.2 0.00 0.00 0.00 25 1019.0
20260509135546 20 102 3.2 3.2 0.00 0.00 0.00 27 1019.2
20260509135027 20 129 3.2 3.2 0.00 0.00 0.00 27 1019.0
20260509134546 20 156 0.0 4.8 0.00 0.00 0.00 27 1019.2
20260509134046 20 126 4.8 6.4 0.00 0.00 0.00 26 1019.0
20260509133547 19 319 0.0 4.8 0.00 0.00 0.00 24 1019.0
20260509133008 18 239 4.8 8.0 0.00 0.00 0.00 24 1018.9
20260509132547 18 276 6.4 9.7 0.00 0.00 0.00 24 1018.7
20260509132047 18 274 11.3 11.3 0.00 0.00 0.00 23 1018.7
20260509131547 18 262 6.4 11.3 0.00 0.00 0.00 23 1018.7
20260509131047 18 263 9.7 14.5 0.00 0.00 0.00 23 1018.5
20260509130547 17 258 12.9 14.5 0.00 0.00 0.00 24 1018.8
20260509130008 17 271 9.7 12.9 0.00 0.00 0.00 24 1018.4
20260509125546 17 250 8.0 12.9 0.00 0.00 0.00 24 1018.5
20260509125046 17 260 12.9 14.5 0.00 0.00 0.00 24 1018.5
20260509124508 17 262 9.7 11.3 0.00 0.00 0.00 24 1018.4
20260509124008 17 261 9.7 12.9 0.00 0.00 0.00 24 1018.4
20260509123547 17 268 11.3 14.5 0.00 0.00 0.00 24 1018.2
20260509123008 17 263 12.9 12.9 0.00 0.00 0.00 25 1018.3
20260509122546 17 262 9.7 14.5 0.00 0.00 0.00 25 1018.2
20260509122047 17 248 12.9 12.9 0.00 0.00 0.00 25 1018.3
20260509121547 17 256 8.0 14.5 0.00 0.00 0.00 25 1018.3
20260509121007 17 268 11.3 16.1 0.00 0.00 0.00 25 1018.0
20260509120547 17 260 12.9 12.9 0.00 0.00 0.00 25 1018.1
20260509120047 17 260 12.9 14.5 0.00 0.00 0.00 25 1018.0
20260509115508 17 267 9.7 16.1 0.00 0.00 0.00 25 1018.1
20260509115046 17 272 12.9 16.1 0.00 0.00 0.00 25 1018.2
20260509114546 17 255 9.7 16.1 0.00 0.00 0.00 25 1018.2
20260509114047 17 266 11.3 17.7 0.00 0.00 0.00 25 1018.1
20260509113546 17 261 12.9 16.1 0.00 0.00 0.00 25 1018.0
20260509113046 17 257 11.3 16.1 0.00 0.00 0.00 25 1018.1
20260509112547 17 263 9.7 17.7 0.00 0.00 0.00 25 1018.0
20260509112007 17 257 9.7 17.7 0.00 0.00 0.00 25 1018.0
20260509111547 17 265 9.7 16.1 0.00 0.00 0.00 25 1018.0
20260509111047 17 271 9.7 19.3 0.00 0.00 0.00 25 1018.0
20260509110507 17 256 12.9 14.5 0.00 0.00 0.00 25 1018.2
20260509110007 17 251 12.9 16.1 0.00 0.00 0.00 25 1018.2
20260509105547 17 264 16.1 16.1 0.00 0.00 0.00 25 1018.2
20260509105007 17 250 11.3 14.5 0.00 0.00 0.00 25 1018.0
20260509104547 17 260 12.9 14.5 0.00 0.00 0.00 25 1018.2
20260509104047 17 252 8.0 14.5 0.00 0.00 0.00 25 1018.2
20260509103547 17 264 9.7 16.1 0.00 0.00 0.00 25 1018.2
20260509103008 17 265 12.9 14.5 0.00 0.00 0.00 25 1018.1
20260509102546 17 257 14.5 19.3 0.00 0.00 0.00 24 1018.2
20260509102046 17 255 11.3 14.5 0.00 0.00 0.00 24 1018.2
20260509101547 17 255 11.3 16.1 0.00 0.00 0.00 24 1018.3
20260509101008 17 272 11.3 14.5 0.00 0.00 0.00 24 1018.6
20260509100546 17 272 12.9 14.5 0.00 0.00 0.00 24 1018.3
20260509100047 17 255 11.3 16.1 0.00 0.00 0.00 24 1018.4
20260509094008 17 264 12.9 16.1 0.00 0.00 0.00 24 1018.4
20260509093546 17 267 14.5 16.1 0.00 0.00 0.00 23 1018.5
20260509093047 17 259 11.3 14.5 0.00 0.00 0.00 24 1018.5
20260509092508 17 262 9.7 14.5 0.00 0.00 0.00 24 1018.5
20260509092008 17 265 11.3 16.1 0.00 0.00 0.00 24 1018.4
20260509091547 17 232 8.0 14.5 0.00 0.00 0.00 24 1018.5
20260509085546 18 257 9.7 19.3 0.00 0.00 0.00 23 1018.4
20260509085008 18 274 12.9 16.1 0.00 0.00 0.00 23 1018.5
20260509084547 18 263 11.3 17.7 0.00 0.00 0.00 23 1018.5
20260509084047 18 248 14.5 16.1 0.00 0.00 0.00 23 1018.4
20260509083547 18 272 12.9 14.5 0.00 0.00 0.00 23 1018.5
20260509083008 18 263 11.3 14.5 0.00 0.00 0.00 23 1018.7
20260509082546 18 267 11.3 16.1 0.00 0.00 0.00 23 1018.5